SQ6RR-11 Weather Reports


time (UTC)temp
C
wind
direction
speed
KPH
gust
KPH
rain 1hr
cm
rain 24hr
cm
rain mn
cm
humidity
%
barometer
mb
20260905100412 18 0 0.0 0.0 0.00 0.00 0.00 44 1019.3
20260905095941 18 0 0.0 0.0 0.00 0.00 0.00 44 1019.1
20260905095521 18 0 0.0 0.0 0.00 0.00 0.00 45 1019.2
20260905095057 18 0 0.0 0.0 0.00 0.00 0.00 43 1019.3
20260905094610 19 0 0.0 0.0 0.00 0.00 0.00 43 1019.1
20260905094122 20 0 0.0 0.0 0.00 0.00 0.00 46 1019.2
20260905093702 20 0 0.0 0.0 0.00 0.00 0.00 45 1019.2
20260905093232 20 0 0.0 0.0 0.00 0.00 0.00 48 1019.2
20260905092811 18 0 0.0 0.0 0.00 0.00 0.00 48 1019.2
20260905092402 18 0 0.0 0.0 0.00 0.00 0.00 47 1019.2
20260905091922 18 0 0.0 0.0 0.00 0.00 0.00 49 1019.2
20260905091442 18 0 0.0 0.0 0.00 0.00 0.00 50 1019.2
20260905091007 18 0 0.0 0.0 0.00 0.00 0.00 50 1019.3
20260905090539 18 0 0.0 0.0 0.00 0.00 0.00 50 1019.3
20260905090115 19 0 0.0 0.0 0.00 0.00 0.00 49 1019.2
20260905085647 18 0 0.0 0.0 0.00 0.00 0.00 46 1019.2
20260905085227 19 0 0.0 0.0 0.00 0.00 0.00 49 1019.1
20260905084737 20 0 0.0 0.0 0.00 0.00 0.00 50 1018.9
20260905084252 19 0 0.0 0.0 0.00 0.00 0.00 52 1018.9
20260905083833 18 0 0.0 0.0 0.00 0.00 0.00 49 1019.0
20260905083347 19 0 0.0 0.0 0.00 0.00 0.00 54 1019.0
20260905082913 20 0 0.0 0.0 0.00 0.00 0.00 54 1018.9
20260905082440 19 0 0.0 0.0 0.00 0.00 0.00 57 1018.9
20260905082020 18 0 0.0 0.0 0.00 0.00 0.00 58 1018.8
20260905081537 18 0 0.0 0.0 0.00 0.00 0.00 58 1018.9
20260905081102 18 0 0.0 0.0 0.00 0.00 0.00 62 1018.9
20260905080641 17 0 0.0 0.0 0.00 0.00 0.00 61 1018.8
20260905080152 17 0 0.0 0.0 0.00 0.00 0.00 59 1018.7
20260905075716 17 0 0.0 0.0 0.00 0.00 0.00 60 1018.6
20260905075257 17 0 0.0 0.0 0.00 0.00 0.00 63 1018.7
20260905074840 17 0 0.0 0.0 0.00 0.00 0.00 63 1018.7
20260905074412 17 0 0.0 0.0 0.00 0.00 0.00 61 1018.7
20260905073932 17 0 0.0 0.0 0.00 0.00 0.00 63 1018.6
20260905073502 17 0 0.0 0.0 0.00 0.00 0.00 65 1018.7
20260905073057 16 0 0.0 0.0 0.00 0.00 0.00 66 1018.7
20260905072632 16 0 0.0 0.0 0.00 0.00 0.00 65 1018.7
20260905072216 16 0 0.0 0.0 0.00 0.00 0.00 65 1018.5
20260905071802 16 0 0.0 0.0 0.00 0.00 0.00 65 1018.6
20260905071327 16 0 0.0 0.0 0.00 0.00 0.00 68 1018.5
20260905070840 16 0 0.0 0.0 0.00 0.00 0.00 71 1018.6
20260905070402 15 0 0.0 0.0 0.00 0.00 0.00 70 1018.6
20260905065938 15 0 0.0 0.0 0.00 0.00 0.00 68 1018.5
20260905065457 15 0 0.0 0.0 0.00 0.00 0.00 69 1018.4
20260905065012 15 0 0.0 0.0 0.00 0.00 0.00 68 1018.4
20260905064535 15 0 0.0 0.0 0.00 0.00 0.00 71 1018.5
20260905064056 15 0 0.0 0.0 0.00 0.00 0.00 69 1018.3
20260905063627 15 0 0.0 0.0 0.00 0.00 0.00 75 1018.3
20260905063200 15 0 0.0 0.0 0.00 0.00 0.00 74 1018.3
20260905062752 15 0 0.0 0.0 0.00 0.00 0.00 74 1018.3
20260905062331 15 0 0.0 0.0 0.00 0.00 0.00 75 1018.2
20260905061852 15 0 0.0 0.0 0.00 0.00 0.00 77 1018.1
20260905061407 15 0 0.0 0.0 0.00 0.00 0.00 78 1018.1
20260905060941 15 0 0.0 0.0 0.00 0.00 0.00 80 1018.0
20260905060520 15 0 0.0 0.0 0.00 0.00 0.00 80 1018.1
20260905060035 15 0 0.0 0.0 0.00 0.00 0.00 84 1017.9
20260905055615 14 0 0.0 0.0 0.00 0.00 0.00 85 1017.9
20260905055152 14 0 0.0 0.0 0.00 0.00 0.00 87 1017.9
20260905054717 14 0 0.0 0.0 0.00 0.00 0.00 88 1017.8
20260905054249 13 0 0.0 0.0 0.00 0.00 0.00 88 1017.7
20260905053827 13 0 0.0 0.0 0.00 0.00 0.00 88 1017.6
20260905053347 13 0 0.0 0.0 0.00 0.00 0.00 88 1017.7
20260905052912 13 0 0.0 0.0 0.00 0.00 0.00 88 1017.6
20260905052502 13 0 0.0 0.0 0.00 0.00 0.00 87 1017.6
20260905052016 13 0 0.0 0.0 0.00 0.00 0.00 87 1017.6
20260905051537 13 0 0.0 0.0 0.00 0.00 0.00 87 1017.5
20260905051115 13 0 0.0 0.0 0.00 0.00 0.00 86 1017.4
20260905050702 13 0 0.0 0.0 0.00 0.00 0.00 87 1017.4
20260905050225 13 0 0.0 0.0 0.00 0.00 0.00 87 1017.2
20260905045802 13 0 0.0 0.0 0.00 0.00 0.00 87 1017.2
20260905045324 14 0 0.0 0.0 0.00 0.00 0.00 87 1017.2
20260905044907 14 0 0.0 0.0 0.00 0.00 0.00 87 1017.3
20260905044440 14 0 0.0 0.0 0.00 0.00 0.00 87 1017.3
20260905044003 14 0 0.0 0.0 0.00 0.00 0.00 87 1017.1
20260905043546 13 0 0.0 0.0 0.00 0.00 0.00 88 1017.1
20260905043107 13 0 0.0 0.0 0.00 0.00 0.00 88 1016.9
20260905042657 14 0 0.0 0.0 0.00 0.00 0.00 89 1016.9
20260905042210 14 0 0.0 0.0 0.00 0.00 0.00 89 1016.7
20260905041757 14 0 0.0 0.0 0.00 0.00 0.00 89 1016.6
20260905041312 14 0 0.0 0.0 0.00 0.00 0.00 89 1016.6
20260905040832 14 0 0.0 0.0 0.00 0.00 0.00 89 1016.7
20260905040357 14 0 0.0 0.0 0.00 0.00 0.00 90 1016.5
20260905035912 13 0 0.0 0.0 0.00 0.00 0.00 90 1016.6
20260905035437 13 0 0.0 0.0 0.00 0.00 0.00 90 1016.6
20260905035011 13 0 0.0 0.0 0.00 0.00 0.00 91 1016.5
20260905034532 13 0 0.0 0.0 0.00 0.00 0.00 91 1016.4
20260905034102 13 0 0.0 0.0 0.00 0.00 0.00 93 1016.4
20260905033625 13 0 0.0 0.0 0.00 0.00 0.00 93 1016.3
20260905033154 13 0 0.0 0.0 0.00 0.00 0.00 93 1016.4
20260905032732 13 0 0.0 0.0 0.00 0.00 0.00 93 1016.4
20260905032247 13 0 0.0 0.0 0.00 0.00 0.00 94 1016.2
20260905031757 13 0 0.0 0.0 0.00 0.00 0.00 94 1016.5
20260905031322 13 0 0.0 0.0 0.00 0.00 0.00 95 1016.3
20260905030851 13 0 0.0 0.0 0.00 0.00 0.00 95 1016.1
20260905030430 13 0 0.0 0.0 0.00 0.00 0.00 96 1016.2
20260905030012 13 0 0.0 0.0 0.00 0.00 0.00 96 1016.2
20260905025541 13 0 0.0 0.0 0.00 0.00 0.00 97 1016.0
20260905025132 13 0 0.0 0.0 0.00 0.00 0.00 98 1016.0
20260905024657 13 0 0.0 0.0 0.00 0.00 0.00 97 1015.9
20260905024227 13 0 0.0 0.0 0.00 0.00 0.00 98 1015.7
20260905023808 13 0 0.0 0.0 0.00 0.00 0.00 98 1015.7
20260905023342 13 0 0.0 0.0 0.00 0.00 0.00 99 1015.7
20260905022927 13 0 0.0 0.0 0.00 0.00 0.00 99 1015.7
20260905022507 13 0 0.0 0.0 0.00 0.00 0.00 99 1015.6
20260905022041 13 0 0.0 0.0 0.00 0.00 0.00 99 1015.7
20260905021602 13 0 0.0 0.0 0.00 0.00 0.00 99 1015.6
20260905021132 13 0 0.0 0.0 0.00 0.00 0.00 99 1015.2
20260905020702 13 0 0.0 0.0 0.00 0.00 0.00 99 1015.2
20260905020237 13 0 0.0 0.0 0.00 0.00 0.00 99 1014.8
20260905015817 13 0 0.0 0.0 0.00 0.00 0.00 99 1014.9
20260905015342 13 0 0.0 0.0 0.00 0.00 0.00 99 1015.1
20260905014907 13 0 0.0 0.0 0.00 0.00 0.00 99 1015.2
20260905014422 13 0 0.0 0.0 0.00 0.00 0.00 99 1014.6
20260905013951 13 0 0.0 0.0 0.00 0.00 0.00 99 1014.7
20260905013547 13 0 0.0 0.0 0.00 0.00 0.00 99 1015.2
20260905013117 13 0 0.0 0.0 0.00 0.00 0.00 99 1015.3
20260905012637 13 0 0.0 0.0 0.00 0.00 0.00 99 1015.4
20260905012211 13 0 0.0 0.0 0.00 0.00 0.00 99 1015.4
20260905011752 13 0 0.0 0.0 0.00 0.00 0.00 99 1015.2
20260905011322 13 0 0.0 0.0 0.00 0.00 0.00 99 1014.9
20260905010912 13 0 0.0 0.0 0.00 0.00 0.00 99 1015.3
20260905010435 13 0 0.0 0.0 0.00 0.00 0.00 99 1015.2
20260905010022 13 0 0.0 0.0 0.00 0.00 0.00 99 1014.9
20260905005559 13 0 0.0 0.0 0.00 0.00 0.00 99 1015.2
20260905005142 13 0 0.0 0.0 0.00 0.00 0.00 99 1015.1
20260905004705 13 0 0.0 0.0 0.00 0.00 0.00 99 1015.2
20260905004227 13 0 0.0 0.0 0.00 0.00 0.00 99 1015.1
20260905003757 13 0 0.0 0.0 0.00 0.00 0.00 99 1015.4
20260905003317 13 0 0.0 0.0 0.00 0.00 0.00 99 1015.4
20260905002857 13 0 0.0 0.0 0.00 0.00 0.00 99 1015.4
20260905002427 13 0 0.0 0.0 0.00 0.00 0.00 99 1015.4
20260905002005 13 0 0.0 0.0 0.00 0.00 0.00 99 1015.4
20260905001552 13 0 0.0 0.0 0.00 0.00 0.00 99 1015.4
20260905001137 13 0 0.0 0.0 0.00 0.00 0.00 99 1015.6
20260905000652 14 0 0.0 0.0 0.00 0.00 0.00 99 1015.3
20260905000227 14 0 0.0 0.0 0.00 0.00 0.00 99 1015.0
20260904235757 14 0 0.0 0.0 0.00 0.00 0.00 99 1015.0
20260904235322 14 0 0.0 0.0 0.00 0.00 0.00 99 1015.2
20260904234852 15 0 0.0 0.0 0.00 0.00 0.00 99 1015.2
20260904234407 15 0 0.0 0.0 0.00 0.00 0.00 99 1014.9
20260904233942 15 0 0.0 0.0 0.00 0.00 0.00 99 1014.5
20260904233517 15 0 0.0 0.0 0.00 0.00 0.00 99 1014.2
20260904233047 15 0 0.0 0.0 0.00 0.00 0.00 99 1014.3
20260904232613 15 0 0.0 0.0 0.00 0.00 0.00 99 1014.5
20260904232150 15 0 0.0 0.0 0.00 0.00 0.00 99 1014.7
20260904231719 15 0 0.0 0.0 0.00 0.00 0.00 99 1014.1
20260904231256 15 0 0.0 0.0 0.00 0.00 0.00 99 1014.3
20260904230822 15 0 0.0 0.0 0.00 0.00 0.00 99 1014.5
20260904230406 15 0 0.0 0.0 0.00 0.00 0.00 99 1014.6
20260904225957 15 0 0.0 0.0 0.00 0.00 0.00 99 1014.2
20260904225530 15 0 0.0 0.0 0.00 0.00 0.00 99 1014.0
20260904225052 15 0 0.0 0.0 0.00 0.00 0.00 99 1013.9
20260904224616 15 0 0.0 0.0 0.00 0.00 0.00 98 1013.9
20260904224137 15 0 0.0 0.0 0.00 0.00 0.00 97 1014.0
20260904223647 15 0 0.0 0.0 0.00 0.00 0.00 95 1014.2
20260904223210 15 0 0.0 0.0 0.00 0.00 0.00 93 1014.3
20260904222746 15 0 0.0 0.0 0.00 0.00 0.00 91 1014.5
20260904222326 15 0 0.0 0.0 0.00 0.00 0.00 90 1014.4
20260904221902 15 0 0.0 0.0 0.00 0.00 0.00 87 1014.0
20260904221427 16 0 0.0 0.0 0.00 0.00 0.00 84 1013.9
20260904220948 16 0 0.0 0.0 0.00 0.00 0.00 80 1014.0
20260904220521 16 0 0.0 0.0 0.00 0.00 0.00 78 1013.9
20260904220047 16 0 0.0 0.0 0.00 0.00 0.00 75 1014.0
20260904215612 16 0 0.0 0.0 0.00 0.00 0.00 73 1014.3
20260904215137 16 0 0.0 0.0 0.00 0.00 0.00 72 1014.1
20260904214707 16 0 0.0 0.0 0.00 0.00 0.00 71 1013.7
20260904214227 17 0 0.0 0.0 0.00 0.00 0.00 70 1013.9
20260904213815 17 0 0.0 0.0 0.00 0.00 0.00 70 1013.8
20260904213332 17 0 0.0 0.0 0.00 0.00 0.00 70 1013.7
20260904212847 17 0 0.0 0.0 0.00 0.00 0.00 70 1013.8
20260904212425 17 0 0.0 0.0 0.00 0.00 0.00 70 1013.9
20260904212005 17 0 0.0 0.0 0.00 0.00 0.00 70 1013.9
20260904211557 17 0 0.0 0.0 0.00 0.00 0.00 70 1013.9
20260904211134 17 0 0.0 0.0 0.00 0.00 0.00 71 1014.1
20260904210727 17 0 0.0 0.0 0.00 0.00 0.00 70 1013.8
20260904210307 17 0 0.0 0.0 0.00 0.00 0.00 70 1013.8
20260904205832 17 0 0.0 0.0 0.00 0.00 0.00 70 1013.8
20260904205402 17 0 0.0 0.0 0.00 0.00 0.00 70 1013.7
20260904204932 17 0 0.0 0.0 0.00 0.00 0.00 69 1013.9
20260904204456 17 0 0.0 0.0 0.00 0.00 0.00 69 1013.9
20260904204017 17 0 0.0 0.0 0.00 0.00 0.00 69 1013.9
20260904203542 17 0 0.0 0.0 0.00 0.00 0.00 69 1014.0
20260904203102 17 0 0.0 0.0 0.00 0.00 0.00 68 1013.9
20260904202641 17 0 0.0 0.0 0.00 0.00 0.00 68 1013.9
20260904202212 17 0 0.0 0.0 0.00 0.00 0.00 67 1014.1
20260904201724 17 0 0.0 0.0 0.00 0.00 0.00 67 1013.8
20260904201256 17 0 0.0 0.0 0.00 0.00 0.00 67 1014.1
20260904200837 17 0 0.0 0.0 0.00 0.00 0.00 66 1014.3
20260904200416 17 0 0.0 0.0 0.00 0.00 0.00 67 1014.0
20260904195942 17 0 0.0 0.0 0.00 0.00 0.00 66 1014.0
20260904195512 17 0 0.0 0.0 0.00 0.00 0.00 66 1013.7
20260904195031 17 0 0.0 0.0 0.00 0.00 0.00 65 1013.7
20260904194612 18 0 0.0 0.0 0.00 0.00 0.00 65 1013.6
20260904194146 18 0 0.0 0.0 0.00 0.00 0.00 63 1013.7
20260904193714 18 0 0.0 0.0 0.00 0.00 0.00 62 1013.7
20260904193237 18 0 0.0 0.0 0.00 0.00 0.00 62 1014.1
20260904192804 18 0 0.0 0.0 0.00 0.00 0.00 63 1014.1
20260904192325 19 0 0.0 0.0 0.00 0.00 0.00 63 1013.6
20260904191852 20 0 0.0 0.0 0.00 0.00 0.00 64 1013.3
20260904191432 20 0 0.0 0.0 0.00 0.00 0.00 64 1013.4
20260904190947 19 0 0.0 0.0 0.00 0.00 0.00 64 1013.3
20260904190514 20 0 0.0 0.0 0.00 0.00 0.00 65 1013.2
20260904190047 20 0 0.0 0.0 0.00 0.00 0.00 64 1013.1
20260904185632 20 0 0.0 0.0 0.00 0.00 0.00 64 1012.8
20260904185215 21 0 0.0 0.0 0.00 0.00 0.00 63 1013.0
20260904184754 21 0 0.0 0.0 0.00 0.00 0.00 61 1012.8
20260904184317 22 0 0.0 0.0 0.00 0.00 0.00 60 1012.4
20260904183900 22 0 0.0 0.0 0.00 0.00 0.00 58 1012.2
20260904183443 22 0 0.0 0.0 0.00 0.00 0.00 58 1011.9
20260904183027 22 0 0.0 0.0 0.00 0.00 0.00 58 1011.5
20260904182602 22 0 0.0 0.0 0.00 0.00 0.00 58 1011.3
20260904182130 23 0 0.0 0.0 0.00 0.00 0.00 58 1011.3
20260904181701 22 0 0.0 0.0 0.00 0.00 0.00 58 1011.1
20260904181257 22 0 0.0 0.0 0.00 0.00 0.00 59 1011.0
20260904180832 22 0 0.0 0.0 0.00 0.00 0.00 59 1011.0
20260904180356 22 0 0.0 0.0 0.00 0.00 0.00 59 1010.8
20260904175939 22 0 0.0 0.0 0.00 0.00 0.00 59 1010.7
20260904175457 22 0 0.0 0.0 0.00 0.00 0.00 59 1010.7
20260904175027 22 0 0.0 0.0 0.00 0.00 0.00 59 1010.8
20260904174543 22 0 0.0 0.0 0.00 0.00 0.00 60 1010.7
20260904174106 22 0 0.0 0.0 0.00 0.00 0.00 60 1010.6
20260904173645 22 0 0.0 0.0 0.00 0.00 0.00 60 1010.6
20260904173214 22 0 0.0 0.0 0.00 0.00 0.00 59 1010.7
20260904172739 22 0 0.0 0.0 0.00 0.00 0.00 59 1011.1
20260904172307 22 0 0.0 0.0 0.00 0.00 0.00 59 1011.3
20260904171846 22 0 0.0 0.0 0.00 0.00 0.00 59 1011.3
20260904171407 22 0 0.0 0.0 0.00 0.00 0.00 59 1011.4
20260904170942 22 0 0.0 0.0 0.00 0.00 0.00 59 1011.4
20260904170521 22 0 0.0 0.0 0.00 0.00 0.00 59 1011.3
20260904170105 22 0 0.0 0.0 0.00 0.00 0.00 59 1011.5
20260904165620 22 0 0.0 0.0 0.00 0.00 0.00 59 1011.4
20260904165157 22 0 0.0 0.0 0.00 0.00 0.00 60 1011.4
20260904164722 22 0 0.0 0.0 0.00 0.00 0.00 60 1011.4
20260904164245 22 0 0.0 0.0 0.00 0.00 0.00 60 1011.4
20260904163842 22 0 0.0 0.0 0.00 0.00 0.00 60 1011.4
20260904163414 22 0 0.0 0.0 0.00 0.00 0.00 60 1011.5
20260904162952 22 0 0.0 0.0 0.00 0.00 0.00 61 1011.6
20260904162516 22 0 0.0 0.0 0.00 0.00 0.00 60 1011.7
20260904162042 22 0 0.0 0.0 0.00 0.00 0.00 60 1011.6
20260904161620 22 0 0.0 0.0 0.00 0.00 0.00 61 1011.6
20260904161157 22 0 0.0 0.0 0.00 0.00 0.00 60 1011.7
20260904160732 22 0 0.0 0.0 0.00 0.00 0.00 60 1011.7
20260904160302 22 0 0.0 0.0 0.00 0.00 0.00 60 1011.7
20260904155836 22 0 0.0 0.0 0.00 0.00 0.00 60 1011.8
20260904155401 22 0 0.0 0.0 0.00 0.00 0.00 60 1011.8
20260904154932 22 0 0.0 0.0 0.00 0.00 0.00 60 1011.7
20260904154504 23 0 0.0 0.0 0.00 0.00 0.00 61 1011.8
20260904154052 22 0 0.0 0.0 0.00 0.00 0.00 61 1011.7
20260904153622 22 0 0.0 0.0 0.00 0.00 0.00 60 1011.7
20260904153147 22 0 0.0 0.0 0.00 0.00 0.00 60 1011.8
20260904152712 22 0 0.0 0.0 0.00 0.00 0.00 60 1011.8
20260904152247 22 0 0.0 0.0 0.00 0.00 0.00 59 1011.8
20260904151802 23 0 0.0 0.0 0.00 0.00 0.00 58 1011.9
20260904151330 23 0 0.0 0.0 0.00 0.00 0.00 58 1011.8
20260904150912 23 0 0.0 0.0 0.00 0.00 0.00 58 1011.7
20260904150452 23 0 0.0 0.0 0.00 0.00 0.00 56 1011.8
20260904150013 23 0 0.0 0.0 0.00 0.00 0.00 56 1011.7
20260904145552 24 0 0.0 0.0 0.00 0.00 0.00 56 1011.7
20260904145127 24 0 0.0 0.0 0.00 0.00 0.00 56 1011.8
20260904144712 24 0 0.0 0.0 0.00 0.00 0.00 55 1011.7
20260904144229 23 0 0.0 0.0 0.00 0.00 0.00 55 1012.0
20260904143807 24 0 0.0 0.0 0.00 0.00 0.00 55 1011.9
20260904143342 24 0 0.0 0.0 0.00 0.00 0.00 55 1012.1
20260904142927 24 0 0.0 0.0 0.00 0.00 0.00 56 1012.2
20260904142521 23 0 0.0 0.0 0.00 0.00 0.00 54 1012.3
20260904142042 24 0 0.0 0.0 0.00 0.00 0.00 56 1012.4
20260904141611 24 0 0.0 0.0 0.00 0.00 0.00 57 1012.5
20260904141203 23 0 0.0 0.0 0.00 0.00 0.00 57 1012.8
20260904140742 24 0 0.0 0.0 0.00 0.00 0.00 55 1012.7
20260904140315 24 0 0.0 0.0 0.00 0.00 0.00 57 1012.6
20260904135910 24 0 0.0 0.0 0.00 0.00 0.00 56 1012.6
20260904135432 25 0 0.0 0.0 0.00 0.00 0.00 56 1012.8
20260904135011 24 0 0.0 0.0 0.00 0.00 0.00 56 1012.7
20260904134546 23 0 0.0 0.0 0.00 0.00 0.00 59 1012.8
20260904134131 23 0 0.0 0.0 0.00 0.00 0.00 59 1013.0
20260904133707 23 0 0.0 0.0 0.00 0.00 0.00 59 1013.0
20260904133233 23 0 0.0 0.0 0.00 0.00 0.00 61 1013.1
20260904132757 23 0 0.0 0.0 0.00 0.00 0.00 59 1013.2
20260904132332 23 0 0.0 0.0 0.00 0.00 0.00 60 1013.6
20260904131857 23 0 0.0 0.0 0.00 0.00 0.00 59 1013.4
20260904131432 23 0 0.0 0.0 0.00 0.00 0.00 58 1013.4
20260904131002 23 0 0.0 0.0 0.00 0.00 0.00 59 1013.3
20260904130517 23 0 0.0 0.0 0.00 0.00 0.00 59 1013.5
20260904130053 23 0 0.0 0.0 0.00 0.00 0.00 60 1013.3
20260904125637 23 0 0.0 0.0 0.00 0.00 0.00 62 1013.7
20260904125207 23 0 0.0 0.0 0.00 0.00 0.00 60 1013.6
20260904124726 22 0 0.0 0.0 0.00 0.00 0.00 60 1013.8
20260904124302 22 0 0.0 0.0 0.00 0.00 0.00 60 1013.8
20260904123829 23 0 0.0 0.0 0.00 0.00 0.00 61 1013.7
20260904123356 23 0 0.0 0.0 0.00 0.00 0.00 61 1013.7
20260904122922 23 0 0.0 0.0 0.00 0.00 0.00 62 1013.9
20260904122442 23 0 0.0 0.0 0.00 0.00 0.00 60 1013.9
20260904122005 23 0 0.0 0.0 0.00 0.00 0.00 61 1014.0
20260904121552 23 0 0.0 0.0 0.00 0.00 0.00 60 1014.2
20260904121125 23 0 0.0 0.0 0.00 0.00 0.00 59 1014.2
20260904120651 23 0 0.0 0.0 0.00 0.00 0.00 60 1014.2
20260904120232 23 0 0.0 0.0 0.00 0.00 0.00 60 1014.2
20260904115812 23 0 0.0 0.0 0.00 0.00 0.00 61 1014.3
20260904115319 23 0 0.0 0.0 0.00 0.00 0.00 60 1014.2
20260904114902 23 0 0.0 0.0 0.00 0.00 0.00 61 1014.1
20260904114419 23 0 0.0 0.0 0.00 0.00 0.00 63 1014.3
20260904114006 22 0 0.0 0.0 0.00 0.00 0.00 64 1014.5
20260904113532 22 0 0.0 0.0 0.00 0.00 0.00 64 1014.5
20260904113112 21 0 0.0 0.0 0.00 0.00 0.00 63 1014.7
20260904112641 22 0 0.0 0.0 0.00 0.00 0.00 65 1014.6
20260904112237 22 0 0.0 0.0 0.00 0.00 0.00 65 1014.7
20260904111800 21 0 0.0 0.0 0.00 0.00 0.00 65 1014.7
20260904111329 21 0 0.0 0.0 0.00 0.00 0.00 63 1014.6
20260904110857 22 0 0.0 0.0 0.00 0.00 0.00 64 1015.0
20260904110437 22 0 0.0 0.0 0.00 0.00 0.00 63 1015.0
20260904110007 22 0 0.0 0.0 0.00 0.00 0.00 66 1015.1
20260904105547 22 0 0.0 0.0 0.00 0.00 0.00 65 1015.0
20260904105111 21 0 0.0 0.0 0.00 0.00 0.00 65 1014.9
20260904104640 21 0 0.0 0.0 0.00 0.00 0.00 66 1015.1
20260904104216 21 0 0.0 0.0 0.00 0.00 0.00 68 1015.5
20260904103805 21 0 0.0 0.0 0.00 0.00 0.00 66 1015.2
20260904103342 21 0 0.0 0.0 0.00 0.00 0.00 65 1015.3
20260904102917 21 0 0.0 0.0 0.00 0.00 0.00 64 1015.2
20260904102427 21 0 0.0 0.0 0.00 0.00 0.00 64 1015.5
20260904101952 22 0 0.0 0.0 0.00 0.00 0.00 66 1015.5
20260904101530 22 0 0.0 0.0 0.00 0.00 0.00 66 1015.6
20260904101112 21 0 0.0 0.0 0.00 0.00 0.00 65 1015.6
20260904100637 21 0 0.0 0.0 0.00 0.00 0.00 64 1015.6